This demonstration page uses our WeatherBlox Daily Observations layout. Learn more.

Left ArrowRight Arrow

Hourly Observations for September 18, 2017

Temp ( °F °C ) Dew Point ( °F °C ) Humidity (%) Winds ( mph kmh ) Pressure ( in mb ) Visibility ( mi km ) Precip ( " mm )
12:51 am 00:51 Clear 70 21.1 39 3.9 32 32 NW 3 6 29.82 1010 10 16.0934 0 0
1:51 am 01:51 Clear 68 20 37 2.8 32 32 WNW 3 6 29.82 1010 10 16.0934 0 0
2:51 am 02:51 Clear 65 18.3 38 3.3 37 37 E 6 9 29.83 1010 10 16.0934 0 0
3:51 am 03:51 Clear 61 16.1 38 3.3 43 43 SE 5 7 29.85 1011 10 16.0934 0 0
4:51 am 04:51 Clear 61 16.1 38 3.3 43 43 ESE 6 9 29.86 1011 10 16.0934 0 0
5:51 am 05:51 Clear 59 15 38 3.3 46 46 E 5 7 29.88 1012 10 16.0934 0 0
6:51 am 06:51 Sunny 64 17.8 38 3.3 38 38 Calm 29.89 1012 10 16.0934 0 0
7:51 am 07:51 Sunny with Light Rain 69 20.6 39 3.9 33 33 S 5 7 29.91 1013 10 16.0934 0 0.0254
8:51 am 08:51 Sunny with Light Rain 79 26.1 38 3.3 23 23 VRB 5 7 29.91 1013 10 16.0934 0 0.0254
9:51 am 09:51 Sunny 83 28.3 37 2.8 19 19 Calm 29.9 1013 10 16.0934 0 0.0254
10:51 am 10:51 Sunny 88 31.1 38 3.3 17 17 VRB 3 6 29.89 1012 10 16.0934 0 0
11:51 am 11:51 Sunny 90 32.2 40 4.4 17 17 VRB 3 6 29.87 1012 10 16.0934 0 0
12:51 pm 12:51 Sunny 93 33.9 38 3.3 14 14 VRB 3 6 29.83 1010 10 16.0934 0 0
1:51 pm 13:51 Sunny 93 33.9 38 3.3 14 14 Calm 29.81 1009 10 16.0934 0 0
2:51 pm 14:51 Sunny 92 33.3 37 2.8 14 14 S 3 6 29.79 1009 10 16.0934 0 0
3:51 pm 15:51 Sunny 94 34.4 38 3.3 14 14 VRB 3 6 29.77 1008 10 16.0934 0 0
4:51 pm 16:51 Sunny 94 34.4 34 1.1 12 12 Calm 29.75 1008 10 16.0934 0 0
5:51 pm 17:51 Sunny 92 33.3 36 2.2 14 14 WNW 10 17 29.76 1008 10 16.0934 0 0
6:51 pm 18:51 Clear 87 30.6 36 2.2 16 16 NW 9 15 29.76 1008 10 16.0934 0 0
7:51 pm 19:51 Clear 82 27.8 34 1.1 18 18 NW 9 15 29.78 1009 10 16.0934 0 0
8:51 pm 20:51 Clear 79 26.1 34 1.1 20 20 WNW 10 17 29.78 1009 10 16.0934 0 0
9:51 pm 21:51 Clear 77 25 31 -0.6 18 18 NW 10 17 29.79 1009 10 16.0934 0 0
10:51 pm 22:51 Clear 73 22.8 31 -0.6 21 21 NNW 8 13 29.78 1009 10 16.0934 0 0
11:51 pm 23:51 Clear 71 21.7 31 -0.6 23 23 NW 8 13 29.79 1009 10 16.0934 0 0

Powered by AerisWeather